AL7PB Weather Reports


time (UTC)temp
F
wind
direction
speed
knots
gust
knots
rain 1hr
in
rain 24hr
in
rain mn
in
humidity
%
barometer
mb
20260510044503 76 0 0.0 0.0 0.00 0.00 0.00 61 1007.0
20260510043603 76 0 0.0 0.0 0.00 0.00 0.00 60 1007.1
20260510042703 77 0 0.0 0.0 0.00 0.00 0.00 60 1007.1
20260510041804 77 0 0.0 0.0 0.00 0.00 0.00 59 1007.1
20260510040903 77 0 0.0 0.0 0.00 0.00 0.00 59 1007.1
20260510040217 77 0 0.0 0.0 0.00 0.00 0.00 58 1007.1
20260510035614 77 0 0.0 0.0 0.00 0.00 0.00 58 1007.1
20260510034503 77 0 0.0 0.0 0.00 0.00 0.00 59 1007.0
20260510033603 77 0 0.0 0.0 0.00 0.00 0.00 59 1007.0
20260510032703 77 0 0.0 0.0 0.00 0.00 0.00 58 1006.9
20260510032013 77 0 0.0 0.0 0.00 0.00 0.00 58 1006.9
20260510030903 78 0 0.0 0.0 0.00 0.00 0.00 59 1006.9
20260510030003 78 0 0.0 0.0 0.00 0.00 0.00 60 1006.9
20260510025403 78 0 0.0 0.0 0.00 0.00 0.00 60 1006.9
20260510024503 78 0 0.0 0.0 0.00 0.00 0.00 60 1007.0
20260510023603 79 0 0.0 0.0 0.00 0.00 0.00 59 1006.9
20260510022917 79 0 0.0 0.0 0.00 0.00 0.00 59 1006.9
20260510022014 79 0 0.0 0.0 0.00 0.00 0.00 57 1006.9
20260510021116 80 0 0.0 0.0 0.00 0.00 0.00 55 1006.7
20260510020214 80 0 0.0 0.0 0.00 0.00 0.00 53 1006.4
20260510015403 80 0 0.0 0.0 0.00 0.00 0.00 51 1006.3
20260510014503 80 0 0.0 0.0 0.00 0.00 0.00 47 1006.3
20260510013815 81 0 0.0 0.0 0.00 0.00 0.00 46 1006.2
20260510012917 82 0 0.0 0.0 0.00 0.00 0.00 44 1006.2
20260510012015 84 0 0.0 0.0 0.00 0.00 0.00 42 1006.0
20260510010903 86 0 0.0 0.0 0.00 0.00 0.00 39 1006.0
20260510010003 87 0 0.0 0.0 0.00 0.00 0.00 37 1006.1
20260510005616 88 0 0.0 0.0 0.00 0.00 0.00 36 1006.2
20260510004713 89 0 0.0 0.0 0.00 0.00 0.00 34 1006.1
20260510003603 90 0 0.0 0.0 0.00 0.00 0.00 32 1006.1
20260510002913 90 0 0.0 0.0 0.00 0.00 0.00 31 1006.1
20260510001803 91 0 0.0 0.0 0.00 0.00 0.00 30 1006.1
20260510001113 91 0 0.0 0.0 0.00 0.00 0.00 30 1006.1
20260510000215 92 0 0.0 0.0 0.00 0.00 0.00 30 1006.1
20260509235617 92 0 0.0 0.0 0.00 0.00 0.00 30 1006.1
20260509234714 92 0 0.0 0.0 0.00 0.00 0.00 30 1006.1
20260509233603 92 0 0.0 0.0 0.00 0.00 0.00 30 1006.2
20260509232913 92 0 0.0 0.0 0.00 0.00 0.00 30 1006.2
20260509232016 93 0 0.0 0.0 0.00 0.00 0.00 29 1006.2
20260509231113 93 0 0.0 0.0 0.00 0.00 0.00 29 1006.3
20260509230216 93 0 0.0 0.0 0.00 0.00 0.00 29 1006.4
20260509225617 93 0 0.0 0.0 0.00 0.00 0.00 30 1006.3
20260509224714 93 0 0.0 0.0 0.00 0.00 0.00 29 1006.3
20260509223817 93 0 0.0 0.0 0.00 0.00 0.00 26 1006.3
20260509222914 93 0 0.0 0.0 0.00 0.00 0.00 28 1006.3
20260509222017 94 0 0.0 0.0 0.00 0.00 0.00 28 1006.3
20260509220903 93 0 0.0 0.0 0.00 0.00 0.00 30 1006.4
20260509220003 93 0 0.0 0.0 0.00 0.00 0.00 29 1006.3
20260509215403 93 0 0.0 0.0 0.00 0.00 0.00 30 1006.4
20260509214715 93 0 0.0 0.0 0.00 0.00 0.00 31 1006.4
20260509213603 93 0 0.0 0.0 0.00 0.00 0.00 29 1006.6
20260509212915 93 0 0.0 0.0 0.00 0.00 0.00 32 1006.6
20260509212017 93 0 0.0 0.0 0.00 0.00 0.00 31 1006.7
20260509210903 93 0 0.0 0.0 0.00 0.00 0.00 33 1006.9
20260509210217 93 0 0.0 0.0 0.00 0.00 0.00 32 1007.0
20260509205613 92 0 0.0 0.0 0.00 0.00 0.00 32 1007.1
20260509204503 93 0 0.0 0.0 0.00 0.00 0.00 33 1007.3
20260509203603 93 0 0.0 0.0 0.00 0.00 0.00 34 1007.5
20260509202915 92 0 0.0 0.0 0.00 0.00 0.00 35 1007.5
20260509202013 93 0 0.0 0.0 0.00 0.00 0.00 34 1007.7
20260509200903 92 0 0.0 0.0 0.00 0.00 0.00 35 1007.8
20260509200217 92 0 0.0 0.0 0.00 0.00 0.00 36 1007.8
20260509195403 92 0 0.0 0.0 0.00 0.00 0.00 36 1008.0
20260509194716 92 0 0.0 0.0 0.00 0.00 0.00 37 1008.1
20260509193603 91 0 0.0 0.0 0.00 0.00 0.00 38 1008.3
20260509192916 91 0 0.0 0.0 0.00 0.00 0.00 38 1008.4
20260509192013 91 0 0.0 0.0 0.00 0.00 0.00 39 1008.4
20260509191116 91 0 0.0 0.0 0.00 0.00 0.00 41 1008.5
20260509190003 90 0 0.0 0.0 0.00 0.00 0.00 38 1008.6
20260509185403 90 0 0.0 0.0 0.00 0.00 0.00 40 1008.7
20260509184717 90 0 0.0 0.0 0.00 0.00 0.00 40 1008.7
20260509183814 90 0 0.0 0.0 0.00 0.00 0.00 41 1008.8
20260509182703 90 0 0.0 0.0 0.00 0.00 0.00 43 1008.9
20260509182014 89 0 0.0 0.0 0.00 0.00 0.00 42 1009.0
20260509181116 89 0 0.0 0.0 0.00 0.00 0.00 44 1009.1
20260509180214 89 0 0.0 0.0 0.00 0.00 0.00 46 1009.2
20260509175615 88 0 0.0 0.0 0.00 0.00 0.00 46 1009.3
20260509174713 88 0 0.0 0.0 0.00 0.00 0.00 46 1009.5
20260509173603 87 0 0.0 0.0 0.00 0.00 0.00 46 1009.6
20260509172917 88 0 0.0 0.0 0.00 0.00 0.00 47 1009.7
20260509172015 87 0 0.0 0.0 0.00 0.00 0.00 47 1009.8
20260509171117 87 0 0.0 0.0 0.00 0.00 0.00 50 1010.0
20260509170214 86 0 0.0 0.0 0.00 0.00 0.00 51 1010.0
20260509165403 86 0 0.0 0.0 0.00 0.00 0.00 51 1010.1
20260509164713 85 0 0.0 0.0 0.00 0.00 0.00 54 1010.1
20260509163603 84 0 0.0 0.0 0.00 0.00 0.00 54 1010.2
20260509162913 83 0 0.0 0.0 0.00 0.00 0.00 56 1010.3
20260509161803 83 0 0.0 0.0 0.00 0.00 0.00 57 1010.3
20260509160903 82 0 0.0 0.0 0.00 0.00 0.00 60 1010.2
20260509160003 82 0 0.0 0.0 0.00 0.00 0.00 61 1010.3
20260509155403 81 0 0.0 0.0 0.00 0.00 0.00 63 1010.3
20260509154714 80 0 0.0 0.0 0.00 0.00 0.00 62 1010.3
20260509153603 80 0 0.0 0.0 0.00 0.00 0.00 64 1010.3
20260509152913 79 0 0.0 0.0 0.00 0.00 0.00 67 1010.3
20260509151803 78 0 0.0 0.0 0.00 0.00 0.00 70 1010.3
20260509151113 78 0 0.0 0.0 0.00 0.00 0.00 71 1010.4
20260509150216 77 0 0.0 0.0 0.00 0.00 0.00 73 1010.4
20260509145617 76 0 0.0 0.0 0.00 0.00 0.00 74 1010.5
20260509144503 75 0 0.0 0.0 0.00 0.00 0.00 77 1010.6
20260509143603 74 0 0.0 0.0 0.00 0.00 0.00 79 1010.7
20260509142914 74 0 0.0 0.0 0.00 0.00 0.00 79 1010.7
20260509141803 73 0 0.0 0.0 0.00 0.00 0.00 81 1010.7
20260509140903 72 0 0.0 0.0 0.00 0.00 0.00 84 1010.7
20260509140221 71 0 0.0 0.0 0.00 0.00 0.00 85 1010.7
20260509135403 70 0 0.0 1.7 0.00 0.00 0.00 87 1010.7
20260509134503 68 0 0.0 0.0 0.00 0.00 0.00 89 1010.7
20260509133817 68 0 0.0 0.0 0.00 0.00 0.00 89 1010.7
20260509132703 67 0 0.0 0.0 0.00 0.00 0.00 90 1010.6
20260509132017 66 0 0.0 0.0 0.00 0.00 0.00 90 1010.6
20260509131114 67 0 0.0 0.0 0.00 0.00 0.00 89 1010.6
20260509130217 67 0 0.0 0.0 0.00 0.00 0.00 90 1010.6
20260509125403 67 0 0.0 0.0 0.00 0.00 0.00 90 1010.4
20260509124716 66 0 0.0 0.0 0.00 0.00 0.00 91 1010.2
20260509123603 65 0 0.0 0.0 0.00 0.00 0.00 91 1010.2
20260509122915 65 0 0.0 0.0 0.00 0.00 0.00 92 1010.1
20260509121803 64 0 0.0 0.0 0.00 0.00 0.00 91 1009.9
20260509120903 63 0 0.0 0.0 0.00 0.00 0.00 91 1009.8
20260509120003 62 0 0.0 0.0 0.00 0.00 0.00 90 1009.8
20260509115614 62 0 0.0 0.0 0.00 0.00 0.00 90 1009.8
20260509114503 63 0 0.0 0.0 0.00 0.00 0.00 89 1009.6
20260509113603 63 0 0.0 0.0 0.00 0.00 0.00 89 1009.4
20260509112916 63 0 0.0 0.0 0.00 0.00 0.00 89 1009.4
20260509112013 63 0 0.0 0.0 0.00 0.00 0.00 89 1009.2
20260509111116 63 0 0.0 0.0 0.00 0.00 0.00 89 1009.2
20260509110003 63 0 0.0 0.0 0.00 0.00 0.00 89 1009.1
20260509105615 63 0 0.0 0.0 0.00 0.00 0.00 88 1009.1
20260509104503 64 0 0.0 0.0 0.00 0.00 0.00 88 1009.2
20260509103603 64 0 0.0 0.0 0.00 0.00 0.00 87 1009.4
20260509102917 64 0 0.0 0.0 0.00 0.00 0.00 86 1009.3
20260509102014 64 0 0.0 0.0 0.00 0.00 0.00 86 1009.2
20260509101116 64 0 0.0 0.0 0.00 0.00 0.00 85 1009.1
20260509100214 64 0 0.0 0.0 0.00 0.00 0.00 85 1009.1
20260509095615 65 0 0.0 0.0 0.00 0.00 0.00 84 1009.2
20260509094503 65 0 0.0 0.0 0.00 0.00 0.00 83 1009.3
20260509093815 65 0 0.0 0.0 0.00 0.00 0.00 82 1009.3
20260509092917 65 0 0.0 0.0 0.00 0.00 0.00 81 1009.4
20260509091803 65 0 0.0 0.0 0.00 0.00 0.00 81 1009.6
20260509090903 66 0 0.0 0.0 0.00 0.00 0.00 80 1009.7
20260509090003 66 0 0.0 0.0 0.00 0.00 0.00 80 1009.6
20260509085616 66 0 0.0 0.0 0.00 0.00 0.00 80 1009.6
20260509084713 66 0 0.0 0.0 0.00 0.00 0.00 79 1009.7
20260509083603 66 0 0.0 0.0 0.00 0.00 0.00 78 1009.5
20260509082913 67 0 0.0 0.0 0.00 0.00 0.00 79 1009.8
20260509081803 66 0 0.0 0.0 0.00 0.00 0.00 80 1009.9
20260509081113 66 0 0.0 0.0 0.00 0.00 0.00 80 1010.1
20260509080215 66 0 0.0 0.0 0.00 0.00 0.00 81 1010.2
20260509075403 66 0 0.0 0.0 0.00 0.00 0.00 80 1010.1
20260509074714 67 0 0.0 0.0 0.00 0.00 0.00 80 1010.1
20260509073816 67 0 0.0 0.0 0.00 0.00 0.00 81 1010.2
20260509072703 68 0 0.0 0.0 0.00 0.00 0.00 84 1011.0
20260509071803 68 0 0.0 0.0 0.00 0.00 0.00 85 1010.7
20260509070903 68 0 0.0 0.0 0.00 0.00 0.00 87 1010.9
20260509070216 68 0 0.0 0.0 0.00 0.00 0.00 87 1010.9
20260509065617 70 0 0.0 0.0 0.00 0.00 0.00 90 1010.8
20260509064714 69 0 0.0 0.0 0.00 0.00 0.00 91 1010.8
20260509063603 68 0 0.0 0.0 0.00 0.00 0.00 91 1010.6
20260509062914 68 0 0.0 0.0 0.00 0.00 0.00 91 1010.2
20260509062016 68 0 0.0 0.0 0.00 0.00 0.00 91 1009.7
20260509061114 68 0 0.0 0.0 0.00 0.00 0.00 91 1009.4
20260509060003 69 0 0.0 0.0 0.00 0.00 0.00 90 1008.9
20260509055403 69 0 0.0 0.0 0.00 0.00 0.00 90 1009.5
20260509054503 69 0 0.0 0.0 0.00 0.00 0.00 90 1009.2
20260509053603 69 0 0.0 0.0 0.00 0.00 0.00 90 1009.5
20260509052915 69 0 0.0 0.0 0.00 0.00 0.00 90 1008.3
20260509051803 70 0 0.0 0.0 0.00 0.00 0.00 89 1008.2
20260509051114 70 0 0.0 0.0 0.00 0.00 0.00 89 1008.3
20260509050003 70 0 0.0 0.0 0.00 0.00 0.00 89 1008.3
20260509045613 70 0 0.0 0.0 0.00 0.00 0.00 89 1008.4